Tracking 33470 objects as of 12-Mar-2026
HD Live streaming from Space Station
objects crossing your sky now

SL-16 DEB

Track SL-16 DEB now!
10-day predictions


NORAD ID: 43375
Int'l Code: 2007-029S
Perigee: 769.4 km
Apogee: 914.4 km
Inclination: 70.9 °
Period: 101.6 minutes
Semi major axis: 7212 km
RCS: Unknown
Launch date: June 29, 2007
Source: Commonwealth of Independent States (former USSR) (CIS)
Launch site: TYURATAM MISSILE AND SPACE COMPLEX (TTMTR)

Note: This is SATELLITE DEBRIS
Your satellite tracking list
Your tracking list is empty




NASA's NSSDC Master Catalog

Two Line Element Set (TLE):
1 43375U 07029S   26060.89132123  .00003853  00000-0  18379-2 0  9992
2 43375  70.8883 135.1081 0100547 132.3036 341.8547 14.17216831628903
Source of the keplerian elements: AFSPC